User: anonymous   Login
Location: Charleston
(38.3500°N, 81.6330°W)
Time: 11:26:57
(UTC-04:00)
Language:

Cosmos 2228 - Orbit

View from above orbital plane
View from above orbital plane
View from above satellite
View from above satellite

Ground track
Ground track

The orbit data is extracted from the following two-line orbital elements,

1 22286U 92094A   14296.80674276  .00002794  00000-0  31473-3 0  4646
2 22286 082.5243 205.4939 0022966 090.4174 269.9674 14.86120920178718
Epoch (UTC): 23 October 2014 19:21:42
Eccentricity: 0.0022966
inclination: 82.5243°
perigee height: 594 km
apogee height: 626 km
right ascension of ascending node: 205.4939°
argument of perigee: 90.4174°
revolutions per day: 14.86120920
mean anomaly at epoch: 269.9674°
orbit number at epoch: 17871

The dashed part of the orbit path shows where the satellite is in the earth's shadow,  

DLR